Date String (YYYY-MM-DD hh:mm:ss) UTC,Instrument flags,absolute air pressure of the measurement (hPa),sample flow rate (lpm),inlet stack bypass flow (lpm),air temperature of the measurement (°C),ambient temperature measured by the external sensor (°C),aerosol sample conditioner tube jacket temperature (°C),OPC LED temperature (°C),internal box temperature (°C),relative humidity of the measurement (%),span deviation,mass concentration of particles derived from Lorenz-Mie calculation of OPC scattering (μg/m³),mass concentration of particles derived from Lorenz-Mie calculation of OPC scattering (μg/m³),mass concentration of particles derived from Lorenz-Mie calculation of OPC scattering (μg/m³)
DateTimeUTC,F1_M11,P_M11,Q1_M11,Q2_M11,T1_M11,T2_M11,T3_M11,T4_M11,T5_M11,U1_M11,ZSPAN_M11,X0_M11,X2_M11,X1_M11
2024-05-02 21:00:00,SystemResetWarning,0824.2,5.00,000.00,025.1,024.6,000.0,033.5,026.9,011.3,0000.0,0015.83,0004.23,0003.00
2024-05-02 21:01:00,SystemResetWarning,0824.2,5.01,000.00,025.1,024.6,000.0,033.5,026.9,011.7,0000.0,0016.15,0004.28,0003.02
2024-05-02 21:02:00,SystemResetWarning,0824.1,4.99,000.00,025.2,024.6,000.0,033.5,026.9,011.3,0000.0,0016.17,0004.29,0003.06
2024-05-02 21:03:00,SystemResetWarning,0824.1,4.99,000.00,025.2,024.6,000.0,033.5,026.9,011.6,0000.0,0016.26,0004.28,0003.08
2024-05-02 21:04:00,SystemResetWarning,0824.1,5.00,000.00,025.2,024.6,000.0,033.5,026.8,010.7,0000.0,0015.59,0004.27,0003.08
2024-05-02 21:05:00,SystemResetWarning,0824.1,5.01,000.00,025.2,024.6,000.0,033.5,026.9,010.8,0000.0,0016.09,0004.25,0003.09
2024-05-02 21:06:00,SystemResetWarning,0824.2,5.00,000.00,025.2,024.5,000.0,033.5,026.8,010.8,0000.0,0015.64,0004.25,0003.11
2024-05-02 21:07:00,SystemResetWarning,0824.1,5.00,000.00,025.1,024.5,000.0,033.5,026.8,010.9,0000.0,0014.89,0004.27,0003.11
2024-05-02 21:08:00,SystemResetWarning,0824.1,4.99,000.00,025.1,024.5,000.0,033.5,026.8,011.3,0000.0,0014.89,0004.26,0003.13
2024-05-02 21:09:00,SystemResetWarning,0824.0,4.99,000.00,025.2,024.5,000.0,033.5,026.8,011.6,0000.0,0015.58,0004.31,0003.15
2024-05-02 21:10:00,SystemResetWarning,0824.0,5.01,000.00,025.2,024.5,000.0,033.5,026.9,011.8,0000.0,0014.25,0004.25,0003.15
2024-05-02 21:11:00,SystemResetWarning,0824.0,5.01,000.00,025.2,024.5,000.0,033.5,026.9,011.0,0000.0,0012.87,0004.20,0003.16
2024-05-02 21:12:00,SystemResetWarning,0824.0,4.99,000.00,025.2,024.6,000.0,033.5,027.0,011.0,0000.0,0013.18,0004.23,0003.17
2024-05-02 21:13:00,SystemResetWarning,0824.0,4.99,000.00,025.2,024.6,000.0,033.5,026.9,010.7,0000.0,0014.69,0004.36,0003.19
2024-05-02 21:14:00,SystemResetWarning,0824.0,5.00,000.00,025.2,024.6,000.0,033.5,026.9,010.6,0000.0,0015.41,0004.41,0003.22
2024-05-02 21:15:00,SystemResetWarning,0824.0,5.01,000.00,025.2,024.6,000.0,033.5,027.0,010.6,0000.0,0016.75,0004.50,0003.24
2024-05-02 21:16:00,SystemResetWarning,0824.0,5.01,000.00,025.2,024.7,000.0,033.5,027.0,010.5,0000.0,0017.40,0004.58,0003.25
2024-05-02 21:17:00,SystemResetWarning,0823.9,4.99,000.00,025.2,024.7,000.0,033.6,027.0,011.0,0000.0,0017.89,0004.61,0003.24
2024-05-02 21:18:00,SystemResetWarning,0824.0,5.00,000.00,025.2,024.7,000.0,033.6,027.0,010.8,0000.0,0017.98,0004.63,0003.24
2024-05-02 21:19:00,SystemResetWarning,0824.0,4.99,000.00,025.2,024.6,000.0,033.6,026.9,010.7,0000.0,0017.99,0004.75,0003.25
2024-05-02 21:20:00,SystemResetWarning,0824.0,5.01,000.00,025.2,024.6,000.0,033.6,027.0,010.6,0000.0,0017.91,0004.78,0003.25
2024-05-02 21:21:00,SystemResetWarning,0824.0,5.01,000.00,025.3,024.6,000.0,033.6,027.0,010.6,0000.0,0017.02,0004.77,0003.26
2024-05-02 21:22:00,SystemResetWarning,0824.0,4.99,000.00,025.2,024.6,000.0,033.6,026.9,010.4,0000.0,0016.83,0004.76,0003.25
2024-05-02 21:23:00,SystemResetWarning,0824.0,4.99,000.00,025.3,024.6,000.0,033.6,027.0,011.1,0000.0,0016.55,0004.77,0003.26
2024-05-02 21:24:00,SystemResetWarning,0824.0,5.00,000.00,025.3,024.6,000.0,033.6,027.0,010.6,0000.0,0015.02,0004.66,0003.24
2024-05-02 21:25:00,SystemResetWarning,0824.0,5.00,000.00,025.3,024.6,000.0,033.6,027.0,010.7,0000.0,0014.45,0004.63,0003.22
2024-05-02 21:26:00,SystemResetWarning,0824.0,5.01,000.00,025.3,024.6,000.0,033.6,027.0,011.4,0000.0,0013.67,0004.57,0003.20
2024-05-02 21:27:00,SystemResetWarning,0824.0,5.01,000.00,025.3,024.6,000.0,033.6,027.0,010.6,0000.0,0011.90,0004.51,0003.18
2024-05-02 21:28:00,SystemResetWarning,0824.0,4.99,000.00,025.3,024.6,000.0,033.6,027.0,010.9,0000.0,0011.69,0004.49,0003.17
2024-05-02 21:29:00,SystemResetWarning,0823.9,5.00,000.00,025.3,024.6,000.0,033.6,027.0,011.5,0000.0,0011.35,0004.49,0003.17
2024-05-02 21:30:00,SystemResetWarning,0824.0,5.00,000.00,025.3,024.6,000.0,033.6,027.0,011.6,0000.0,0011.99,0004.47,0003.17
2024-05-02 21:31:00,SystemResetWarning,0823.9,5.00,000.00,025.3,024.6,000.0,033.6,027.0,011.2,0000.0,0012.48,0004.45,0003.16
2024-05-02 21:32:00,SystemResetWarning,0823.9,5.00,000.00,025.3,024.6,000.0,033.6,027.0,011.6,0000.0,0012.84,0004.49,0003.14
2024-05-02 21:33:00,SystemResetWarning,0824.0,5.00,000.00,025.3,024.6,000.0,033.6,027.0,011.0,0000.0,0018.40,0004.82,0003.15
2024-05-02 21:34:00,SystemResetWarning,0823.9,5.00,000.00,025.3,024.6,000.0,033.6,027.1,011.0,0000.0,0021.08,0004.91,0003.16
2024-05-02 21:35:00,SystemResetWarning,0823.9,5.00,000.00,025.3,024.6,000.0,033.6,027.0,011.4,0000.0,0021.47,0004.99,0003.19
2024-05-02 21:36:00,SystemResetWarning,0824.0,5.00,000.00,025.3,024.7,000.0,033.6,027.0,011.1,0000.0,0022.33,0005.05,0003.21
2024-05-02 21:37:00,SystemResetWarning,0824.0,5.00,000.00,025.3,024.7,000.0,033.6,027.0,011.0,0000.0,0023.72,0005.09,0003.22
2024-05-02 21:38:00,SystemResetWarning,0823.9,5.00,000.00,025.3,024.6,000.0,033.6,027.0,011.2,0000.0,0023.84,0005.11,0003.23
2024-05-02 21:39:00,SystemResetWarning,0824.0,5.01,000.00,025.3,024.6,000.0,033.6,027.0,011.0,0000.0,0024.75,0005.17,0003.23
2024-05-02 21:40:00,SystemResetWarning,0824.0,4.99,000.00,025.3,024.6,000.0,033.6,027.0,011.5,0000.0,0025.75,0005.22,0003.25
2024-05-02 21:41:00,SystemResetWarning,0824.0,5.00,000.00,025.3,024.6,000.0,033.6,027.0,012.3,0000.0,0026.98,0005.31,0003.26
2024-05-02 21:42:00,SystemResetWarning,0824.0,5.00,000.00,025.3,024.7,000.0,033.6,027.0,011.8,0000.0,0025.58,0005.24,0003.24
2024-05-02 21:43:00,SystemResetWarning,0824.0,5.00,000.00,025.3,024.6,000.0,033.6,027.0,011.4,0000.0,0025.52,0005.23,0003.26
2024-05-02 21:44:00,SystemResetWarning,0824.0,5.00,000.00,025.3,024.6,000.0,033.6,027.0,011.2,0000.0,0021.40,0005.01,0003.26
2024-05-02 21:45:00,SystemResetWarning,0824.0,5.00,000.00,025.3,024.6,000.0,033.6,027.0,011.1,0000.0,0017.63,0004.86,0003.25
2024-05-02 21:46:00,SystemResetWarning,0824.0,4.99,000.00,025.3,024.6,000.0,033.6,027.0,011.1,0000.0,0017.30,0004.82,0003.24
2024-05-02 21:47:00,SystemResetWarning,0824.0,5.00,000.00,025.3,024.6,000.0,033.6,027.0,011.0,0000.0,0016.45,0004.77,0003.22
2024-05-02 21:48:00,SystemResetWarning,0824.0,5.00,000.00,025.3,024.6,000.0,033.6,027.0,010.9,0000.0,0014.66,0004.76,0003.22
2024-05-02 21:49:00,SystemResetWarning,0824.1,5.00,000.00,025.3,024.6,000.0,033.6,026.9,011.3,0000.0,0014.17,0004.76,0003.22
2024-05-02 21:50:00,SystemResetWarning,0824.2,5.01,000.00,025.3,024.6,000.0,033.6,026.9,012.3,0000.0,0013.33,0004.71,0003.21
2024-05-02 21:51:00,SystemResetWarning,0824.2,5.01,000.00,025.3,024.6,000.0,033.6,027.0,011.7,0000.0,0012.83,0004.69,0003.20
2024-05-02 21:52:00,SystemResetWarning,0824.2,4.99,000.00,025.3,024.6,000.0,033.6,027.0,011.1,0000.0,0012.96,0004.71,0003.20
2024-05-02 21:53:00,SystemResetWarning,0824.2,4.99,000.00,025.3,024.6,000.0,033.6,026.9,011.3,0000.0,0013.55,0004.77,0003.21
2024-05-02 21:54:00,SystemResetWarning,0824.2,5.00,000.00,025.3,024.6,000.0,033.6,027.0,010.8,0000.0,0014.28,0004.79,0003.22
2024-05-02 21:55:00,SystemResetWarning,0824.1,5.01,000.00,025.3,024.6,000.0,033.6,027.0,011.0,0000.0,0014.42,0004.77,0003.23
2024-05-02 21:56:00,SystemResetWarning,0824.0,5.01,000.00,025.3,024.6,000.0,033.6,027.0,010.8,0000.0,0014.33,0004.82,0003.24
2024-05-02 21:57:00,SystemResetWarning,0824.0,5.00,000.00,025.3,024.6,000.0,033.6,027.0,011.7,0000.0,0014.61,0004.85,0003.25
2024-05-02 21:58:00,SystemResetWarning,0824.0,5.00,000.00,025.3,024.6,000.0,033.6,027.0,011.2,0000.0,0015.52,0004.86,0003.26
2024-05-02 21:59:00,SystemResetWarning,0823.9,4.99,000.00,025.3,024.6,000.0,033.6,027.0,011.2,0000.0,0015.79,0004.86,0003.26
